Pagina principale
METAR-TAF:

METAR-TAF

Aeroporti :

North Central State Airport

Pawtucket, Rhode Island, Stati Uniti

latitudine: 41-55N, longitudine: 071-30W, altezza: 134 m

Osservazione

Il bollettino è stato emesso 14 minuti fa, alle 02:56 UTC
Vento calmo
Temperature 3°C
Umidità 87%
Pressione 1022 hPa
Visibilità: 16.1 km
Nuvoloso ad un'altezza di 9000 ft

METAR: KSFZ 230256Z AUTO 00000KT 10SM BKN090 03/01 A3019 RMK AO2 SLP171 T00280006 51003

Ora: 23:10 (03:10 UTC)


TAF: mancante

Osservazioni e previsioni meteorologiche di più di 4000 aeroporti (messaggi METAR e TAF).

Le stazioni disponibili sono rappresentate dai dischi gialli e rossi sulla carta.

Puntare il mouse per vedere il nome della stazione.

Clicca sopra per visualizzare le osservazioni e previsioni meteorologiche.

Per cambiare la mappa : fare clic sui pulsanti verdi con una croce nera per ingrandire, il pulsante verde con un trattino per diminuire, o sulla freccia verde per le mappe adiacenti.


METAR-TAF: